TimeEDT,TemperatureF,Dew PointF,Humidity,Sea Level PressureIn,VisibilityMPH,Wind Direction,Wind SpeedMPH,Gust SpeedMPH,PrecipitationIn,Events,Conditions,WindDirDegrees,DateUTC
12:53 AM,61.0,60.1,97,30.04,-9999.0,Calm,Calm,-,0.01,,Unknown,0,2013-03-18 04:53:00
1:53 AM,61.0,59.0,93,30.03,-9999.0,Calm,Calm,-,N/A,,Unknown,0,2013-03-18 05:53:00
2:53 AM,61.0,59.0,93,29.99,-9999.0,SSE,4.6,-,N/A,,Unknown,160,2013-03-18 06:53:00
3:53 AM,61.0,59.0,93,29.99,-9999.0,Calm,Calm,-,N/A,,Unknown,0,2013-03-18 07:53:00
4:53 AM,60.1,57.9,93,29.98,-9999.0,Calm,Calm,-,N/A,,Unknown,0,2013-03-18 08:53:00
5:53 AM,61.0,57.9,90,29.99,-9999.0,Calm,Calm,-,N/A,,Unknown,0,2013-03-18 09:53:00
6:53 AM,61.0,57.9,90,30.01,-9999.0,Calm,Calm,-,N/A,,Unknown,0,2013-03-18 10:53:00
7:53 AM,60.1,57.9,93,30.01,-9999.0,Calm,Calm,-,N/A,,Unknown,0,2013-03-18 11:53:00
8:53 AM,62.1,59.0,90,30.03,-9999.0,SSE,3.5,-,N/A,,Unknown,160,2013-03-18 12:53:00
9:53 AM,64.0,61.0,90,30.04,-9999.0,SSE,4.6,-,N/A,,Unknown,160,2013-03-18 13:53:00
10:53 AM,66.0,61.0,84,30.04,-9999.0,South,6.9,-,N/A,,Unknown,180,2013-03-18 14:53:00
11:53 AM,66.0,63.0,90,30.03,-9999.0,South,4.6,-,0.02,,Unknown,190,2013-03-18 15:53:00
12:53 PM,70.0,64.9,84,30.02,-9999.0,Variable,4.6,-,0.01,,Unknown,0,2013-03-18 16:53:00
1:53 PM,75.0,64.9,71,29.99,-9999.0,South,8.1,17.3,N/A,,Unknown,190,2013-03-18 17:53:00
2:53 PM,75.9,62.1,62,29.97,-9999.0,SW,11.5,18.4,N/A,,Unknown,230,2013-03-18 18:53:00
3:53 PM,78.1,64.0,62,29.94,-9999.0,SSW,13.8,21.9,N/A,,Unknown,200,2013-03-18 19:53:00
4:53 PM,75.0,66.0,73,29.94,-9999.0,South,15.0,21.9,N/A,,Unknown,180,2013-03-18 20:53:00
5:53 PM,73.9,66.0,76,29.92,-9999.0,South,12.7,-,N/A,,Unknown,180,2013-03-18 21:53:00
6:53 PM,72.0,64.9,78,29.92,-9999.0,South,8.1,-,N/A,,Unknown,180,2013-03-18 22:53:00
7:53 PM,69.1,63.0,81,29.90,-9999.0,South,9.2,-,N/A,,Unknown,180,2013-03-18 23:53:00
8:53 PM,66.9,62.1,84,29.90,-9999.0,SSW,6.9,-,N/A,,Unknown,200,2013-03-19 00:53:00
9:53 PM,66.0,62.1,87,29.92,-9999.0,SW,5.8,-,N/A,,Unknown,220,2013-03-19 01:53:00
10:53 PM,64.0,61.0,90,29.94,-9999.0,South,4.6,-,N/A,,Unknown,180,2013-03-19 02:53:00
11:53 PM,64.0,61.0,90,29.94,-9999.0,Calm,Calm,-,N/A,,Unknown,0,2013-03-19 03:53:00